SCP
0 0 0 0 0 0 0 0 0 0 1 1 1 1 1 1 1 1 1 1 1 2 2 2 2 2 2 2 1 1 1 1 1 2 2 2 2 2 1 1 1 1 1 1 1 1 1 1 1
0 0 0 0 0 0 0 0 0 1 1 1 1 1 1 1 1 1 1 1 1 2 2 2 3 2 2 2 2 1 1 1 1 2 2 2 2 1 1 1 1 1 1 1 1 1 1 1 1
0 0 0 0 0 0 0 1 1 1 1 1 1 1 1 1 1 1 1 1 2 2 2 3 3 2 2 2 2 2 2 2 2 2 2 2 1 1 1 1 1 1 1 1 1 1 1 1 1
0 0 0 0 0 0 0 1 1 1 1 1 1 1 1 1 1 1 1 2 2 2 3 3 3 2 2 2 2 2 2 2 2 2 2 2 1 1 1 1 1 1 1 1 1 1 1 1 1
0 0 0 0 0 0 0 1 1 1 1 1 1 1 1 1 1 1 2 2 2 2 3 3 3 2 2 2 2 2 2 2 2 2 2 1 1 1 1 1 1 1 1 1 1 1 1 1 1
0 0 0 0 0 0 1 0 1 1 1 1 1 1 2 2 2 2 2 2 2 3 4 3 3 2 2 2 2 2 2 2 2 2 2 1 1 1 1 1 1 1 1 1 1 1 1 1 1
0 0 0 0 0 1 1 1 1 1 1 1 1 1 2 2 2 2 3 3 3 4 4 3 2 2 2 2 2 2 2 2 2 2 2 2 2 2 1 1 1 1 1 1 1 1 1 1 1
0 0 0 0 0 1 1 1 1 1 1 1 1 1 2 2 3 3 3 4 4 4 5 4 3 2 3 4 4 3 3 3 3 2 2 2 2 2 2 1 1 1 1 1 1 1 1 1 1
0 0 0 0 0 1 1 1 1 1 2 2 2 2 2 3 3 3 4 4 4 4 5 4 3 3 4 5 5 4 4 3 3 2 2 2 2 2 2 2 2 1 1 1 1 1 1 1 1
0 0 0 1 1 1 1 1 2 2 2 2 3 3 3 3 3 3 4 4 4 4 5 4 4 3 4 5 5 5 4 3 2 2 2 2 2 2 2 2 2 2 1 1 1 1 1 1 1
0 0 1 1 1 1 2 2 2 2 2 2 3 3 3 3 3 3 3 4 4 4 4 4 4 4 4 4 4 4 4 3 2 2 2 2 2 2 2 3 3 2 2 2 2 2 2 1 2
0 1 1 1 1 1 2 2 2 2 2 2 3 3 3 3 3 3 3 4 4 4 3 3 4 4 5 4 4 4 4 3 3 3 3 3 3 3 3 3 3 3 3 2 2 2 2 2 2
0 1 1 1 1 2 2 2 2 2 3 2 2 3 3 3 3 3 4 4 4 4 4 4 5 5 6 5 4 4 4 4 4 5 5 4 4 4 4 4 4 4 4 3 3 2 2 2 2
1 1 1 1 1 2 2 2 2 2 3 3 3 3 3 4 4 4 4 4 4 4 4 5 6 7 6 6 5 4 4 4 5 6 6 6 6 5 5 5 5 4 4 4 3 3 3 3 2
1 1 1 2 1 1 1 2 2 2 2 3 3 3 3 3 3 4 4 4 4 4 5 5 6 7 7 7 6 5 4 5 6 7 7 7 7 7 6 6 5 5 4 4 3 3 3 2 2
0 0 1 1 1 1 1 1 2 2 2 3 3 3 3 3 3 3 4 4 4 4 5 5 6 7 7 8 7 6 5 5 6 6 7 7 7 7 7 6 5 4 4 3 3 3 2 2 2
0 0 1 1 1 1 1 1 1 1 2 2 2 2 3 3 3 3 4 4 4 4 5 5 5 6 8 9 8 7 6 6 6 6 6 6 6 6 6 5 4 3 3 3 2 2 2 2 2
0 0 1 1 1 1 1 1 1 1 2 2 2 2 3 3 3 3 4 3 3 4 4 5 6 7 8 9 9 8 7 7 6 5 5 5 5 5 4 4 3 3 2 2 2 2 2 2 2
0 0 1 1 1 1 1 1 1 2 2 1 1 2 3 3 3 3 3 3 3 4 5 5 6 8 9 9 9 9 9 8 7 6 5 4 4 4 3 3 2 2 2 2 2 2 3 3 3
0 0 0 1 1 1 1 1 2 2 2 1 1 2 3 3 3 3 3 3 4 4 5 5 7 8 9 9 10 10 10 9 8 6 4 4 3 3 2 2 2 2 2 1 1 2 3 3 3
0 0 0 0 0 0 1 1 1 2 2 1 1 2 3 4 4 3 3 3 3 4 5 5 7 8 9 10 10 10 10 9 8 6 4 4 3 3 2 2 2 1 1 2 1 2 2 2 2
0 0 0 0 0 0 0 1 1 1 1 1 1 1 3 4 4 3 2 2 3 3 4 4 6 8 10 11 11 11 10 9 7 6 5 4 3 3 2 1 1 1 1 1 1 1 2 1 1
0 0 0 0 0 0 0 0 1 1 1 1 1 1 2 4 4 3 2 2 2 2 3 4 5 7 9 11 12 12 10 8 7 6 5 4 3 3 2 2 1 1 1 1 1 1 1 1 1
0 0 0 0 0 0 0 0 1 1 1 1 1 1 3 4 4 2 2 2 2 2 3 4 4 5 7 9 10 10 8 7 7 7 6 4 3 3 3 2 2 1 1 1 1 1 1 1 1
0 0 0 0 0 0 0 0 1 1 1 1 1 1 3 4 3 2 2 1 2 2 3 4 4 4 6 7 7 6 5 5 6 6 5 4 3 3 3 2 2 1 1 1 1 1 1 1 1
0 0 0 0 0 0 0 0 1 1 1 1 1 2 2 3 2 2 1 2 2 2 4 4 4 3 4 6 6 5 4 4 5 5 5 4 3 3 2 2 1 1 1 1 1 1 1 1 1
0 0 0 0 0 0 0 0 1 1 1 1 2 2 2 2 2 2 2 2 2 2 3 4 3 3 3 4 5 4 3 3 4 4 4 3 3 2 1 1 1 1 1 1 1 1 1 1 1
0 0 0 0 0 0 0 0 1 1 1 1 1 2 2 2 2 2 2 2 2 3 3 3 3 3 3 4 5 4 3 2 3 3 3 2 2 1 1 1 1 1 1 1 1 1 1 1 1
0 0 0 0 0 0 0 0 1 1 1 1 1 2 2 3 2 2 2 3 3 3 3 3 3 3 3 3 4 3 2 2 2 2 2 2 1 1 1 1 1 1 1 1 1 1 1 1 1
0 0 0 0 0 0 0 0 0 1 1 1 1 1 2 3 2 2 3 3 3 3 3 2 3 3 3 3 3 3 2 2 2 2 2 2 1 1 1 1 1 1 1 1 1 1 1 1 1
Wind_Speed
9 8 7 6 8 8 6 4 3 2 2 2 1 1 0 2 2 4 6 11 14 16 18 19 16 15 14 13 13 12 12 12 12 12 11 10 10 9 8 7 6 5 4 4 3 3 2 2 1
7 8 7 7 9 8 5 4 4 1 2 3 3 1 1 2 4 5 7 12 15 16 16 16 17 15 14 13 12 12 12 12 11 11 11 10 9 8 7 6 5 5 4 3 3 2 2 1 1
8 8 7 7 9 8 3 4 3 3 3 3 3 0 1 3 4 4 8 15 15 15 14 16 17 15 14 13 13 12 12 11 11 10 10 9 8 7 6 5 5 4 3 3 2 2 1 2 2
7 8 7 9 10 6 2 3 2 2 3 3 3 3 3 4 2 6 13 15 16 15 15 17 16 15 14 13 13 12 12 11 10 10 9 8 7 6 5 5 4 3 3 3 2 2 2 2 3
8 7 10 11 10 5 3 2 4 4 3 4 3 3 4 4 6 10 14 15 15 14 14 17 15 14 14 13 12 12 11 10 9 9 8 7 6 5 4 3 3 3 2 3 2 2 2 3 3
7 7 10 11 9 6 4 4 5 5 4 4 4 3 4 5 8 11 13 13 13 13 13 15 15 14 13 13 12 11 10 9 9 8 7 6 6 5 4 3 2 2 2 2 2 2 3 4 4
9 8 11 10 7 6 4 4 6 5 5 4 4 4 5 8 8 11 12 12 12 12 12 14 14 13 12 11 10 10 9 8 8 7 7 6 6 4 4 3 2 1 1 1 1 2 3 3 4
7 8 10 9 8 6 4 4 4 5 3 2 4 5 5 10 10 11 11 11 11 11 11 11 12 12 12 12 11 10 9 8 8 7 6 6 6 6 4 4 3 2 2 2 2 2 3 3 4
8 10 9 8 7 4 5 4 3 3 3 3 3 0 6 14 14 13 12 10 10 10 10 10 11 10 10 10 11 10 9 8 7 7 7 6 6 5 6 3 3 2 2 3 3 3 4 5 6
8 9 6 3 3 3 4 4 3 5 6 5 5 6 11 14 14 14 14 13 12 11 10 9 9 9 8 7 8 6 7 7 6 5 6 5 3 2 2 6 3 3 3 4 4 4 7 9 5
7 6 2 3 3 4 4 4 4 6 6 5 6 9 12 13 13 13 13 12 12 11 10 9 8 8 7 6 5 4 3 4 5 4 4 3 2 2 2 2 4 4 5 4 4 6 5 4 4
6 4 4 4 3 5 5 4 4 6 5 1 4 7 12 14 13 12 12 12 11 10 10 9 9 8 7 5 4 4 4 3 3 4 3 3 2 2 1 2 1 2 1 2 3 3 3 5 5
7 4 3 3 4 4 5 5 4 4 3 2 5 8 12 13 12 11 10 10 10 10 10 9 9 8 7 5 4 4 3 3 3 2 3 3 2 2 1 1 2 2 2 2 3 4 4 5 5
2 3 4 4 4 4 5 4 4 3 2 4 6 7 9 11 11 10 10 10 10 10 9 9 9 8 7 6 4 3 3 2 2 2 2 3 2 1 2 2 1 2 2 3 3 3 4 4 4
4 5 5 4 4 3 5 5 5 2 2 3 4 5 7 8 9 10 10 10 10 9 9 9 8 8 7 6 6 4 3 3 2 2 2 2 2 2 2 1 2 1 2 2 3 3 4 4 4
8 8 6 4 4 4 7 4 2 3 3 4 4 5 6 6 8 8 9 8 8 8 9 8 7 8 7 6 4 3 2 3 2 2 2 2 2 2 2 1 1 2 2 2 2 3 4 4 5
8 6 4 4 3 3 6 3 2 2 4 5 5 5 5 6 6 6 7 8 8 8 8 8 7 8 7 6 4 3 2 2 2 2 1 2 2 1 2 1 1 3 2 2 4 3 4 4 5
3 3 4 3 3 4 5 3 2 3 5 5 4 5 5 5 6 6 6 7 8 8 8 7 7 7 6 5 4 3 3 3 2 2 2 2 2 2 2 1 1 3 2 2 2 4 4 5 5
4 5 4 2 1 4 5 5 4 3 4 4 4 5 5 5 5 5 6 7 7 8 7 7 7 7 6 5 5 4 4 3 3 2 2 2 1 1 2 2 1 2 1 2 3 4 4 4 4
6 7 5 2 1 4 5 7 4 4 6 4 4 4 4 4 5 5 6 6 7 7 8 8 7 7 7 5 4 3 3 2 2 2 2 2 2 2 2 2 2 2 2 2 3 3 4 3 3
7 7 4 3 3 6 7 8 6 5 5 4 4 3 3 4 5 6 6 6 6 6 7 6 7 7 7 6 5 4 4 3 3 3 3 2 3 2 1 2 2 2 3 2 3 3 4 4 3
6 3 4 5 7 6 6 7 5 6 5 5 4 3 3 4 5 5 6 6 6 6 6 6 6 6 7 7 6 6 4 4 3 2 2 2 3 3 2 2 2 2 2 2 3 3 4 4 4
4 3 6 7 8 9 8 9 4 6 5 5 5 4 4 4 4 5 5 5 5 5 5 5 5 5 6 7 7 6 5 3 2 2 3 3 3 3 2 2 2 2 2 2 3 3 4 3 4
3 5 7 9 9 9 5 7 4 3 3 2 3 3 3 3 4 4 4 4 4 4 4 5 6 5 5 6 6 6 5 4 3 3 3 3 2 2 2 2 2 2 2 2 3 3 3 4 5
6 7 6 7 7 4 1 6 2 3 2 1 1 2 3 3 3 3 3 4 4 4 4 4 5 5 5 5 5 5 5 5 5 4 3 2 2 2 2 2 2 2 2 3 3 3 4 4 5
5 8 7 7 6 5 4 5 2 4 3 2 1 2 2 3 3 3 3 3 4 4 4 4 4 4 5 5 5 4 5 5 3 3 2 2 2 1 2 3 3 3 3 3 3 4 4 4 5
6 6 7 9 9 8 5 3 3 3 2 2 2 2 2 2 2 2 3 3 4 4 4 5 4 4 4 4 5 5 4 4 3 3 3 2 1 2 2 3 3 3 3 4 4 4 5 5 6
6 6 6 7 7 7 6 4 2 2 2 2 2 2 2 1 1 1 2 3 3 3 4 4 4 4 4 4 4 4 4 4 3 3 3 2 2 2 3 3 3 4 4 4 5 5 4 6 6
4 4 6 6 7 8 6 3 6 4 2 1 2 2 1 1 1 2 2 2 2 3 3 4 4 4 3 3 4 4 4 3 4 4 4 3 3 3 4 4 4 4 4 4 5 6 6 7 6
5 6 6 6 6 7 7 3 5 4 2 1 1 1 0 2 2 2 2 2 3 3 3 3 3 3 3 3 3 3 3 3 3 3 3 3 3 3 4 4 4 4 4 5 6 7 6 7 7
Wind_Direction
193 191 207 222 231 227 229 208 205 171 151 112 129 244 267 357 342 53 94 146 145 143 142 152 154 154 152 148 144 141 139 137 136 136 138 139 140 141 142 145 148 148 150 153 156 155 156 150 149
186 186 212 231 244 228 204 197 190 156 76 136 153 177 170 84 45 87 128 143 146 142 146 153 151 154 153 149 146 143 142 141 139 139 140 142 142 144 146 149 155 155 157 163 168 171 172 174 187
188 213 234 231 237 246 192 126 122 99 131 181 160 158 10 64 100 117 132 145 145 142 146 144 153 155 154 151 149 147 145 143 143 143 144 145 147 149 152 156 158 162 164 173 184 188 197 215 225
197 209 229 240 232 238 259 130 140 170 151 176 168 130 103 51 78 123 139 149 147 148 151 144 155 154 154 152 151 150 148 146 146 146 147 148 151 154 159 163 165 171 178 189 199 211 223 240 248
227 229 223 228 230 222 223 224 226 225 197 174 184 146 113 84 108 131 146 152 152 151 150 144 152 153 153 153 153 151 148 148 148 148 148 148 149 152 159 164 168 182 200 208 216 229 242 251 256
217 228 230 224 217 211 211 217 226 228 200 175 181 176 119 122 139 143 147 154 153 151 148 141 151 154 154 154 153 151 149 149 150 149 148 146 143 141 145 150 157 169 196 219 234 247 256 258 260
237 232 237 233 220 210 206 212 218 219 209 192 183 182 140 144 143 144 146 153 152 151 149 149 155 155 154 152 151 150 149 150 151 150 150 150 148 148 151 151 151 160 193 250 273 275 274 272 269
255 245 232 227 223 213 172 201 217 220 215 142 194 200 164 145 143 142 143 151 153 155 155 152 156 157 161 159 156 154 153 154 154 154 158 162 165 169 175 187 167 195 225 245 265 276 278 274 270
241 241 225 218 221 204 171 202 206 212 192 203 223 260 108 135 146 147 148 157 157 160 158 160 159 161 166 160 151 162 160 161 168 170 169 191 200 188 183 173 143 209 237 247 259 266 268 263 236
229 235 230 250 263 225 198 218 212 206 202 198 175 137 133 148 157 160 163 166 165 167 167 167 164 164 169 162 157 175 178 168 192 182 180 199 198 216 229 123 161 217 236 240 245 258 251 253 248
230 248 252 244 256 248 238 236 235 229 225 210 183 160 157 162 167 171 171 171 170 168 171 171 168 168 172 169 168 176 182 172 190 186 192 202 210 206 230 194 183 211 227 245 223 237 259 275 288
232 250 271 269 258 246 248 249 250 254 270 276 178 169 166 172 175 176 175 173 169 170 173 174 172 169 176 175 176 182 181 177 185 170 204 202 211 226 233 252 253 245 253 280 288 285 295 293 286
225 230 251 258 251 246 248 250 264 266 266 182 170 172 173 175 176 176 174 170 171 173 173 175 176 171 173 178 191 181 186 180 171 179 186 225 224 232 228 252 280 283 290 279 292 298 302 288 280
221 239 246 245 240 225 233 235 235 250 222 177 171 172 174 176 176 173 171 171 175 176 175 174 178 173 173 176 182 183 180 177 194 185 180 216 238 244 245 238 268 288 303 318 301 305 295 291 296
219 224 217 209 219 206 227 224 217 204 180 177 172 169 172 176 176 178 176 176 178 176 175 176 177 172 176 182 185 187 184 184 187 175 184 212 230 222 247 254 262 310 304 285 285 295 291 284 283
214 221 210 171 200 196 238 228 137 150 179 189 181 172 170 177 182 182 178 178 179 177 175 177 177 170 173 179 185 190 189 184 185 179 179 200 219 228 246 257 290 293 280 284 292 290 298 300 294
207 218 206 176 185 205 237 255 134 177 204 206 195 185 179 176 182 183 182 180 181 180 178 175 177 175 173 172 173 178 183 194 188 183 186 180 195 227 252 280 328 276 282 296 300 319 307 301 300
240 248 227 221 167 230 248 265 220 220 225 218 206 193 188 186 185 179 182 182 180 181 179 176 174 175 167 166 172 178 181 186 193 184 173 188 197 213 254 236 261 276 287 301 315 309 300 296 299
279 268 259 245 192 254 249 259 251 227 224 218 212 203 197 197 179 170 175 180 179 177 177 179 177 174 174 175 183 186 190 186 184 182 166 191 209 223 253 279 244 273 290 307 311 304 295 294 306
253 256 250 218 205 262 259 263 249 219 223 219 219 208 197 187 167 161 170 176 181 185 187 187 186 183 187 183 186 190 186 191 188 179 166 196 199 225 237 261 266 279 279 290 306 303 300 303 307
254 260 264 274 248 238 257 251 218 195 197 196 205 205 192 186 173 169 174 180 183 188 194 192 193 190 191 184 176 167 176 189 184 188 187 203 214 211 250 263 287 288 286 308 298 299 295 300 301
259 261 255 252 257 256 246 272 225 202 197 196 201 203 196 186 180 179 181 183 187 193 193 193 193 193 189 187 187 186 197 201 193 203 186 193 199 203 202 232 261 284 295 306 290 300 292 290 297
294 291 254 253 261 267 244 261 237 191 214 208 197 196 200 192 182 185 189 190 188 189 191 189 184 189 192 194 193 195 202 196 184 188 182 202 189 199 196 215 243 258 280 305 314 313 300 298 297
257 245 244 245 247 250 249 267 259 187 224 206 175 189 199 189 184 187 187 187 189 185 183 181 176 182 189 197 197 198 194 191 193 200 195 202 189 192 194 216 237 259 284 283 284 284 282 291 295
241 260 254 241 239 257 225 267 298 76 40 311 187 172 182 180 184 187 189 187 186 185 185 175 173 178 183 188 195 199 197 202 198 202 202 214 213 205 194 225 248 268 275 278 281 274 288 287 287
265 275 288 294 295 299 258 261 63 73 61 55 92 126 151 173 178 187 189 187 187 184 175 173 180 184 185 190 194 197 202 209 197 200 216 221 232 231 219 225 241 259 268 275 279 278 282 283 283
273 275 313 292 285 279 270 253 168 119 89 85 90 108 117 145 167 184 181 183 182 174 172 181 185 189 194 196 190 191 204 218 209 206 219 216 209 224 225 233 246 258 265 276 279 282 285 286 282
292 305 282 281 291 287 279 281 335 72 44 52 41 60 87 108 133 148 156 165 166 166 166 175 184 190 194 190 194 194 197 206 206 211 212 217 219 237 240 243 251 261 268 273 279 284 286 285 286
274 257 277 286 293 295 300 343 36 21 33 33 22 17 75 118 125 137 145 149 146 151 154 168 183 186 189 193 197 206 206 201 208 211 209 211 224 233 242 250 257 266 275 282 282 286 290 286 291
288 298 291 285 288 288 294 331 68 50 41 63 28 19 98 133 132 125 118 123 131 149 160 165 177 184 190 193 191 200 208 208 215 217 215 218 233 243 250 260 272 278 283 285 284 287 291 289 290